Weather Service Report


443 
FPUS83 KFGF 241210
OPUFGF
PRAIRIE TO PINES WEATHER ROUNDUP
NATIONAL WEATHER SERVICE EASTERN NORTH DAKOTA/GRAND FORKS ND
700 AM CDT SUN MAY 24 2015

 **SATELLITE DATA USED TO AUGMENT SKY COVER AT AUTOMATED STATIONS**
 *****  WEATHER ACROSS EASTERN NORTH DAKOTA  *****
  
CITY           SKY/WX    TMP DP  RH WIND       PRES   REMARKS
GRAND FORKS    MOSUNNY   50  46  86 S5        30.08R                  
6HR MIN TEMP:  46; 6HR MAX TEMP:  53;                                

GRAND FORKS AF SUNNY     48  46  93 W1        30.08S                  
GRAND CITY NWS   N/A     46 N/A N/A SW3         N/A                   
BUXTON         NOT AVBL                                               
DEVILS LAKE    SUNNY     52  46  82 CALM      30.07S                  
6HR MIN TEMP:  46; 6HR MAX TEMP:  57;                                

FARGO          MOSUNNY   55  49  80 CALM      30.06F                  
6HR MIN TEMP:  49; 6HR MAX TEMP:  55;                                

WAHPETON ARPT  CLOUDY    59  45  58 E5        30.04F                  
$$

 *****  WEATHER ACROSS CENTRAL AND WESTERN NORTH DAKOTA  *****
  
CITY           SKY/WX    TMP DP  RH WIND       PRES   REMARKS
JAMESTOWN      MOCLDY    54  50  86 NE6       30.07S                  
6HR MIN TEMP:  51; 6HR MAX TEMP:  56;                                

BISMARCK       CLOUDY    54  51  90 NE3       30.07S                  
6HR MIN TEMP:  51; 6HR MAX TEMP:  56;                                

MINOT          MOCLDY    51  47  86 CALM      30.07S                  
6HR MIN TEMP:  45; 6HR MAX TEMP:  56;                                

MINOT AFB      CLEAR     47  47 100 SW2       30.07R                  
6HR MIN TEMP:  43; 6HR MAX TEMP:  53;                                

GARRISON         N/A     54  50  86 NE3       30.06F                  
6HR MIN TEMP:  50; 6HR MAX TEMP:  56;                                

WILLISTON      CLEAR     45  41  86 NE5       30.08S                  
6HR MIN TEMP:  44; 6HR MAX TEMP:  52;                                

DICKINSON      CLOUDY    49  46  90 NE5       30.05S FOG              
6HR MIN TEMP:  45; 6HR MAX TEMP:  49;                                

HETTINGER      CLOUDY    50  48  93 NE10      30.04F FOG              
6HR MIN TEMP:  47; 6HR MAX TEMP:  51;                                

$$

 *****  OTHER OBSERVATIONS NORTHEAST NORTH DAKOTA  *****
  
CITY           SKY/WX    TMP DP  RH WIND       PRES   REMARKS
WALHALLA         N/A     57  46  67 W5        30.07S                  
LANGDON        FAIR      46  43  87 CALM      30.09S                  
CAVALIER       FAIR      52  46  82 CALM      30.06F                  
GRAFTON        FAIR      48  48 100 S3        30.08S                  
CANDO          FAIR      50  48  93 CALM      30.08S                  
FORT TOTTEN      N/A     53  50  88 CALM      29.95                   
ROLLA          FAIR      52  45  76 CALM      30.09S                  
RUGBY          NOT AVBL                                               
 ***** THE ABOVE OBSERVATIONS ARE NON NWS ARE NOT QUALITY
        CONTROLLED AND MAY MIS-REPORT RAIN FOR SNOW...
$$

 *****  OTHER OBSERVATIONS SOUTHEAST NORTH DAKOTA *****
  
CITY           SKY/WX    TMP DP  RH WIND       PRES   REMARKS
COOPERSTOWN    NOT AVBL                                               
VALLEY CITY    PTSUNNY   50  50 100 N5        30.08R                  
OAKES            N/A     54  52  94 NE10      30.04S                  
GWINNER        NOT AVBL                                               
SHEYENNE NWR     N/A     54  48  81 NE5       29.95S                  
BUFFALO        NOT AVBL                                               
WYNDMERE         N/A     59  48  67 E6          N/A                   
 ***** THE ABOVE OBSERVATIONS ARE NON NWS ARE NOT QUALITY
       CONTROLLED AND MAY MIS-REPORT RAIN FOR SNOW...
$$

  *****  WEATHER ACROSS NORTHERN MINNESOTA  *****     
  
CITY           SKY/WX    TMP DP  RH WIND       PRES   REMARKS
FLAG ISLAND    SUNNY     57  45  62 CALM      30.06F                  
WARROAD        FAIR      52  46  82 CALM      30.09F                  
ROSEAU         SUNNY     52  45  76 CALM      30.09F                  
HALLOCK        SUNNY     52  46  82 S5        30.07S                  
THF RVR FALLS  SUNNY     52  45  76 CALM      30.10S                  
6HR MIN TEMP:  46; 6HR MAX TEMP:  57;                                

HALSTAD        NOT AVBL                                               
FOSSTON        MOSUNNY   52  46  82 CALM      30.10F                  
BAUDETTE       SUNNY     50  46  86 S3        30.09F                  
6HR MIN TEMP:  47; 6HR MAX TEMP:  56;                                

WASKISH        SUNNY     52  46  82 CALM      30.11F                  
CROOKSTON      SUNNY     54  46  76 CALM      30.10S                  
$$
  *****  WEATHER ACROSS CENTRAL AND WEST MINNESOTA  *****     
  
CITY           SKY/WX    TMP DP  RH WIND       PRES   REMARKS
BEMIDJI        MOSUNNY   48  46  90 CALM      30.11S                  
PARK RAPIDS    CLOUDY    57  47  69 NE5       30.09F                  
6HR MIN TEMP:  51; 6HR MAX TEMP:  57;                                

WADENA         CLOUDY    55  46  71 NE6       30.07S                  
DETROIT LAKES  PTSUNNY   55  46  71 E3        30.09S                  
MOORHEAD       PTSUNNY   55  48  76 NE5       30.07S                  
FERGUS FALLS   CLOUDY    61  48  63 E7        30.05F                  
ELBOW LAKE     CLOUDY    60  48  64 E8        30.04S                  
6HR MIN TEMP:  58; 6HR MAX TEMP:  61;                                

MORRIS MN      CLOUDY    59  48  67 E8        30.02F                  
STAPLES        CLOUDY    57  46  67 CALM      30.08S                  
WHEATON        CLOUDY    57  48  72 E5        30.05S                  
$$
  *****  WEATHER ELSEWHERE ACROSS MINNESOTA  *****     
  
CITY           SKY/WX    TMP DP  RH WIND       PRES   REMARKS
DULUTH         PTSUNNY   58  48  69 VRB3      30.12F                  
6HR MIN TEMP:  46; 6HR MAX TEMP:  58;                                

INTRNTL FALLS  SUNNY     50  45  83 CALM      30.10F                  
6HR MIN TEMP:  42; 6HR MAX TEMP:  54;                                

ELY            MOSUNNY   48  43  81 CALM      30.12F                  
CLOQUET        CLOUDY    54  45  71 CALM      30.11F                  
BRAINERD       CLOUDY    57  48  72 E3        30.09S                  
6HR MIN TEMP:  54; 6HR MAX TEMP:  57;                                

HIBBING        MOSUNNY   47  42  83 CALM      30.12F                  
6HR MIN TEMP:  37; 6HR MAX TEMP:  47;                                

ALEXANDRIA     CLOUDY    59  46  62 E9        30.06F                  
6HR MIN TEMP:  58; 6HR MAX TEMP:  60;                                

SAINT CLOUD    CLOUDY    58  48  69 E7        30.05S                  
6HR MIN TEMP:  57; 6HR MAX TEMP:  60; 6HR PCP: TRACE;                

MINNEAPOLIS    CLOUDY    62  49  62 E8        30.05S                  
6HR MIN TEMP:  59; 6HR MAX TEMP:  62; 6HR PCP:  0.02;                

$$

  *****  WEATHER ACROSS SOUTH DAKOTA  *****
  
CITY           SKY/WX    TMP DP  RH WIND       PRES   REMARKS
SIOUX FALLS    CLOUDY    59  58  96 E9        29.96S                  
6HR MIN TEMP:  57; 6HR MAX TEMP:  59; 6HR PCP:  0.10;                

BROOKINGS      CLOUDY    57  55  94 E7        30.00R                  
WATERTOWN      CLOUDY    56  49  77 E7        30.01R                  
6HR MIN TEMP:  54; 6HR MAX TEMP:  57; 6HR PCP: TRACE;                

HURON          CLOUDY    55  54  96 NE6       29.98S FOG              
6HR MIN TEMP:  54; 6HR MAX TEMP:  57; 6HR PCP:  0.01;                

SISSETON         N/A     56  50  80 CALM      30.02S                  
ABERDEEN       CLOUDY    56  49  77 NE9       30.00F                  
6HR MIN TEMP:  53; 6HR MAX TEMP:  56;                                

MITCHELL       CLOUDY    58  57  97 NE6       29.97R FOG              
PIERRE         CLOUDY    55  54  96 E8        29.97S FOG              
6HR MIN TEMP:  54; 6HR MAX TEMP:  55; 6HR PCP:  0.01;                

MOBRIDGE       CLOUDY    56  52  86 N3        29.99F                  
RAPID CITY     LGT RAIN  52  51  97 E15       29.95S FOG              
6HR MIN TEMP:  52; 6HR MAX TEMP:  53; 6HR PCP:  0.19;                

$$

  *****  SOME WEATHER IN NEARBY STATES *****
  
CITY           SKY/WX    TMP DP  RH WIND       PRES   REMARKS
GLASGOW MT     MOCLDY    47  39  74 CALM      30.07S                  
6HR MIN TEMP:  44; 6HR MAX TEMP:  53;                                

GREAT FALLS MT FOG       44  43  96 CALM      30.09S VSB 1/4          
6HR MIN TEMP:  39; 6HR MAX TEMP:  51;                                

CHEYENNE WY    PTCLDY    37  36  96 CALM      29.93R                  
6HR MIN TEMP:  37; 6HR MAX TEMP:  46;                                

SCOTTSBLUFF NE CLOUDY    51  51 100 E5        29.90R FOG              
6HR MIN TEMP:  51; 6HR MAX TEMP:  54; 6HR PCP:  0.08;                

OMAHA NE       CLOUDY    61  59  93 E10       29.88F FOG              
6HR MIN TEMP:  60; 6HR MAX TEMP:  63; 6HR PCP:  0.17;                

DES MOINES IA  LGT RAIN  61  58  90 E12       29.96F                  
6HR MIN TEMP:  60; 6HR MAX TEMP:  67; 6HR PCP:  0.59;                

DAVENPORT IA   LGT RAIN  60  54  80 SE10      30.12R                  
6HR MIN TEMP:  59; 6HR MAX TEMP:  68; 6HR PCP:  0.06;                

CHICAGO IL     CLOUDY    63  50  62 VRB3      30.18S                  
6HR MIN TEMP:  59; 6HR MAX TEMP:  65; 6HR PCP: TRACE;                

EAU CLAIRE WI  CLOUDY    58  49  72 NE3       30.09F                  
6HR MIN TEMP:  55; 6HR MAX TEMP:  58;                                

LA CROSSE WI   CLOUDY    59  50  72 SE6       30.09S                  
6HR MIN TEMP:  57; 6HR MAX TEMP:  61;                                

$$

  *****  SOME NATIONAL WEATHER *****
  
CITY           SKY/WX    TMP DP  RH WIND       PRES   REMARKS

Return to Home page


Western Regional Climate Center, wrcc@dri.edu